Kaneohe MCBH, HI

2:43 PM HST on May 25, 2017 (GMT -1000)
Kaneohe Bay Marine Corps Air Facility

Weather History for PHNG - April, 2014

Change the Weather History Date:

Thursday, April 24, 2014

  Actual Average Record
Temperature  
Mean Temperature 76 °F -  
Max Temperature 82 °F 76 °F 84 °F (2015)
Min Temperature 71 °F 68 °F 68 °F (2008)
Cooling Degree Days 12    
Growing Degree Days 26 (Base 50)    
Moisture  
Dew Point 65 °F    
Average Humidity 71    
Maximum Humidity 83    
Minimum Humidity 55    
Precipitation  
Precipitation 0.00 in - - ()
Sea Level Pressure  
Sea Level Pressure 30.12 in    
Wind  
Wind Speed 11 mph (ENE)    
Max Wind Speed 17 mph    
Max Gust Speed 26 mph    
Visibility 6 miles    
Events Rain    
Averages and records for this station are not official NWS values.
T = Trace of Precipitation, MM = Missing Value Source: NWS Daily Summary

Daily Weather History Graph

Daily Weather History Graph

Search for Another Location

Airport or City:

Trip Planner

Search our weather history database for the weather conditions in past years. The results will help you decide how hot, cold, wet, or windy it might be!

Date:

Astronomy

Apr. 24, 2014 Rise Set
Actual Time 6:04 AM HST 6:53 PM HST
Civil Twilight 5:41 AM HST 7:16 PM HST
Nautical Twilight 5:14 AM HST 7:44 PM HST
Astronomical Twilight 4:47 AM HST 8:11 PM HST
Moon 2:46 AM HST (4/24) 2:54 PM HST (4/24)
Length of Visible Light 13h 35m
Length of Day
12h 49m
Waning Crescent, 22% of the Moon is Illuminated
Apr 24
Waning Crescent
Apr 28
New
May 6
First Quarter
May 14
Full
May 21
Last Quarter

Hourly Weather History & Observations

Time (HST) Temp. Heat Index Dew Point Humidity Pressure Visibility Wind Dir Wind Speed Gust Speed Precip Events Conditions
12:14 AM - - - N/A% 30.12 in 6.0 mi ENE 11.5 mph 19.6 mph N/A   Haze
12:25 AM - - - N/A% 30.12 in 6.0 mi ENE 9.2 mph 20.7 mph N/A   Haze
12:57 AM - - - N/A% 30.11 in 7.0 mi East 11.5 mph 23.0 mph N/A   Scattered Clouds
1:57 AM - - - N/A% 30.09 in 7.0 mi ENE 11.5 mph 19.6 mph N/A   Partly Cloudy
2:57 AM - - - N/A% 30.07 in 6.0 mi ENE 9.2 mph - N/A   Haze
3:57 AM - - - N/A% 30.07 in 7.0 mi ENE 6.9 mph 16.1 mph N/A   Overcast
4:57 AM 71.6 °F - 64.0 °F 77% 30.07 in 7.0 mi ENE 9.2 mph - N/A   Overcast
5:57 AM 71.6 °F - 63.0 °F 74% 30.09 in 7.0 mi ENE 8.1 mph - N/A   Partly Cloudy
6:57 AM 71.6 °F - 64.0 °F 77% 30.11 in 7.0 mi ENE 10.4 mph 17.3 mph N/A   Scattered Clouds
7:57 AM 77.0 °F - 64.9 °F 66% 30.12 in 7.0 mi NE 13.8 mph 19.6 mph N/A   Clear
8:57 AM 77.0 °F - 66.0 °F 69% 30.14 in 7.0 mi NE 8.1 mph 18.4 mph N/A   Overcast
9:57 AM 79.3 °F - 66.0 °F 64% 30.15 in 7.0 mi ENE 12.7 mph 21.9 mph N/A   Overcast
10:57 AM 80.6 °F 82.7 °F 66.0 °F 61% 30.15 in 7.0 mi ENE 12.7 mph 19.6 mph N/A   Scattered Clouds
11:57 AM 82.4 °F 84.4 °F 66.0 °F 57% 30.14 in 7.0 mi ENE 12.7 mph 21.9 mph N/A   Clear
12:57 PM 82.4 °F 84.1 °F 64.9 °F 55% 30.11 in 7.0 mi ENE 12.7 mph 21.9 mph N/A   Scattered Clouds
1:57 PM 82.4 °F 84.4 °F 66.0 °F 57% 30.09 in 7.0 mi NE 16.1 mph - N/A   Partly Cloudy
2:57 PM 82.4 °F 84.1 °F 64.9 °F 55% 30.07 in 7.0 mi ENE 10.4 mph 18.4 mph N/A   Overcast
3:57 PM 78.8 °F - 64.0 °F 60% 30.07 in 7.0 mi NE 13.8 mph 19.6 mph N/A   Overcast
4:57 PM 78.8 °F - 66.0 °F 65% 30.06 in 6.0 mi ENE 12.7 mph 18.4 mph N/A   Haze
5:57 PM 78.8 °F - 64.0 °F 60% 30.08 in 7.0 mi ENE 8.1 mph 18.4 mph N/A   Mostly Cloudy
6:34 PM 78.8 °F - 64.4 °F 61% 30.10 in 6.2 mi ENE 9.2 mph 18.4 mph N/A   Mostly Cloudy
6:48 PM 78.8 °F - 64.4 °F 61% 30.11 in 6.2 mi East 12.7 mph 18.4 mph N/A   Scattered Clouds
6:57 PM 77.9 °F - 64.9 °F 64% 30.10 in 7.0 mi East 8.1 mph 18.4 mph N/A   Scattered Clouds
7:57 PM 75.2 °F - 64.9 °F 70% 30.12 in 8.0 mi East 10.4 mph 16.1 mph N/A   Scattered Clouds
8:02 PM - - - N/A% 30.13 in - East 12.7 mph 25.3 mph N/A Rain Light Rain
8:04 PM 75.2 °F - 64.4 °F 69% 30.13 in 6.2 mi East 10.4 mph 25.3 mph N/A Rain Rain
8:13 PM 75.2 °F - 64.4 °F 69% 30.13 in 6.2 mi ENE 9.2 mph 23.0 mph N/A   Mostly Cloudy
8:30 PM 75.2 °F - 64.4 °F 69% 30.14 in 6.2 mi East 15.0 mph 23.0 mph N/A   Mostly Cloudy
8:55 PM 71.6 °F - 64.4 °F 78% 30.15 in 6.0 mi East 17.3 mph 26.5 mph N/A Rain Light Rain
8:57 PM 71.6 °F - 64.0 °F 77% 30.14 in 6.0 mi East 13.8 mph 26.5 mph N/A Rain Light Rain
9:57 PM 71.6 °F - 64.9 °F 79% 30.14 in 7.0 mi ENE 9.2 mph 18.4 mph N/A   Overcast
10:08 PM 71.6 °F - 66.2 °F 83% 30.17 in 1.8 mi East 11.5 mph 18.4 mph N/A Rain Light Rain
10:16 PM 71.6 °F - 66.2 °F 83% 30.16 in 2.5 mi East 9.2 mph 16.1 mph N/A Rain Light Rain
10:23 PM 71.6 °F - 66.2 °F 83% 30.17 in 4.0 mi East 17.3 mph 24.2 mph N/A Rain Light Rain
10:30 PM 71.6 °F - 66.2 °F 83% 30.17 in 6.0 mi East 16.1 mph 26.5 mph N/A Rain Light Rain
10:38 PM 71.6 °F - 66.2 °F 83% 30.16 in 6.0 mi East 11.5 mph 23.0 mph N/A Rain Light Rain
10:50 PM 71.6 °F - 66.2 °F 83% 30.16 in 6.0 mi East 12.7 mph 19.6 mph N/A   Haze
10:57 PM 71.6 °F - 66.0 °F 82% 30.15 in 7.0 mi East 12.7 mph 19.6 mph N/A   Mostly Cloudy
11:53 PM 71.6 °F - 66.2 °F 83% 30.15 in - East 12.7 mph 19.6 mph N/A Rain Rain
11:57 PM 71.6 °F - 66.0 °F 82% 30.14 in 7.0 mi East 12.7 mph 19.6 mph N/A   Overcast